IRIDIUM 157

Last updated on Fri Sep 11 2026 00:03:06 GMT+0000 (Coordinated Universal Time)

1 43251U 18030C 26253.58286048 -.00000126 00000+0 -51962-4 0 9993 2 43251 86.3910 254.7004 0002203 89.2752 270.8696 14.34216443442376
UTC large
Height (km)
Speed (km/s)
/
Latitude / Longitude
Inclination (degrees)
Orbital Period (minutes)
Azimuth
Elevation
Range (km)
Doppler Factor

Next 0 passes for location: London (51.5072 / 0.1276)

No passes found over London.
IRIDIUM 157